Location: Helsinki
(60.1699°N, 24.9384°E)
Time: 17:14:58
(UTC+02:00)

A-11 Canister half - Pass Details

Date: 29 October 2020
Orbit: 1525 x 1684 km, 47.3° (Epoch: 29 November)

Event Time Altitude Azimuth Distance (km) Brightness Sun altitude
Rises 20:05:24 0° 274° (W) 4,710 12.7 -26.8°
Reaches altitude 10° 20:09:11 10° 262° (W) 3,710 11.8 -27.2°
Maximum altitude 20:16:04 24° 213° (SSW) 2,752 10.4 -28.0°
Enters shadow 20:20:27 17° 178° (S) 3,169 10.4 -28.5°
